| time (UTC) | temp F | wind direction | speed MPH | gust MPH | rain 1hr in | rain 24hr in | rain mn in | humidity % | barometer mb |
| 20260508092535 | 33 | 125 | 0.0 | 1.0 | 0.00 | 0.04 | 0.00 | 94 | 1016.3 |
| 20260508091516 | 33 | 26 | 0.0 | 1.0 | 0.00 | 0.04 | 0.00 | 94 | 1016.2 |
| 20260508090516 | 33 | 0.0 | 0.0 | 0.00 | 0.04 | 0.00 | 94 | 1016.0 | |
| 20260508085536 | 33 | 40 | 0.0 | 3.0 | 0.00 | 0.04 | 0.00 | 94 | 1016.1 |
| 20260508084516 | 34 | 116 | 1.0 | 2.0 | 0.00 | 0.04 | 0.00 | 94 | 1015.9 |
| 20260508083516 | 34 | 0.0 | 0.0 | 0.00 | 0.04 | 0.00 | 94 | 1015.9 | |
| 20260508082517 | 34 | 119 | 0.0 | 1.0 | 0.00 | 0.04 | 0.00 | 94 | 1015.8 |
| 20260508081557 | 34 | 120 | 1.0 | 2.0 | 0.00 | 0.04 | 0.00 | 94 | 1015.6 |
| 20260508080517 | 34 | 324 | 0.0 | 1.0 | 0.00 | 0.04 | 0.00 | 94 | 1015.7 |
| 20260508075517 | 35 | 144 | 0.0 | 0.0 | 0.00 | 0.04 | 0.00 | 94 | 1015.7 |
| 20260508074537 | 35 | 95 | 0.0 | 1.0 | 0.00 | 0.04 | 0.00 | 94 | 1015.7 |
| 20260508073537 | 35 | 124 | 0.0 | 1.0 | 0.00 | 0.04 | 0.00 | 94 | 1015.6 |
| 20260508072517 | 36 | 0.0 | 0.0 | 0.00 | 0.04 | 0.00 | 94 | 1015.4 | |
| 20260508071538 | 36 | 142 | 0.0 | 2.0 | 0.00 | 0.04 | 0.00 | 94 | 1015.4 |
| 20260508070518 | 36 | 108 | 0.0 | 1.0 | 0.00 | 0.04 | 0.00 | 94 | 1015.5 |
| 20260508065518 | 37 | 340 | 0.0 | 1.0 | 0.00 | 0.04 | 0.00 | 94 | 1015.5 |
| 20260508064518 | 37 | 133 | 0.0 | 1.0 | 0.00 | 0.04 | 0.00 | 94 | 1015.4 |
| 20260508063519 | 37 | 126 | 0.0 | 2.0 | 0.00 | 0.04 | 0.00 | 94 | 1015.5 |
| 20260508062516 | 37 | 128 | 0.0 | 2.0 | 0.00 | 0.04 | 0.00 | 94 | 1015.5 |
| 20260508061516 | 38 | 133 | 0.0 | 1.0 | 0.00 | 0.04 | 0.00 | 94 | 1015.5 |
| 20260508060516 | 38 | 116 | 0.0 | 1.0 | 0.00 | 0.04 | 0.00 | 93 | 1015.6 |
| 20260508055516 | 38 | 124 | 0.0 | 1.0 | 0.00 | 0.04 | 0.00 | 93 | 1015.6 |
| 20260508054637 | 39 | 155 | 0.0 | 1.0 | 0.00 | 0.04 | 0.00 | 93 | 1015.5 |
| 20260508053517 | 39 | 71 | 0.0 | 2.0 | 0.00 | 0.04 | 0.00 | 93 | 1015.3 |
| 20260508052517 | 39 | 118 | 0.0 | 2.0 | 0.00 | 0.04 | 0.00 | 93 | 1015.1 |
| 20260508051517 | 40 | 111 | 0.0 | 1.0 | 0.00 | 0.04 | 0.00 | 93 | 1015.0 |
| 20260508050517 | 40 | 170 | 0.0 | 1.0 | 0.00 | 0.04 | 0.00 | 93 | 1014.9 |
| 20260508045517 | 40 | 111 | 0.0 | 2.0 | 0.00 | 0.04 | 0.00 | 92 | 1014.7 |
| 20260508044517 | 40 | 29 | 1.0 | 3.0 | 0.00 | 0.04 | 0.00 | 92 | 1014.6 |
| 20260508043538 | 41 | 125 | 0.0 | 2.0 | 0.00 | 0.04 | 0.00 | 92 | 1014.6 |
| 20260508042518 | 41 | 140 | 0.0 | 2.0 | 0.00 | 0.04 | 0.00 | 92 | 1014.7 |
| 20260508041518 | 41 | 144 | 0.0 | 2.0 | 0.00 | 0.04 | 0.00 | 91 | 1014.6 |
| 20260508040518 | 42 | 76 | 0.0 | 1.0 | 0.00 | 0.04 | 0.00 | 90 | 1014.5 |
| 20260508035518 | 42 | 188 | 0.0 | 2.0 | 0.00 | 0.04 | 0.04 | 90 | 1014.5 |
| 20260508034518 | 43 | 147 | 0.0 | 3.0 | 0.00 | 0.04 | 0.04 | 89 | 1014.3 |
| 20260508033515 | 43 | 117 | 0.0 | 3.0 | 0.00 | 0.04 | 0.04 | 89 | 1014.3 |
| 20260508032536 | 44 | 155 | 0.0 | 2.0 | 0.00 | 0.04 | 0.04 | 88 | 1014.3 |
| 20260508031516 | 44 | 53 | 1.0 | 3.0 | 0.00 | 0.04 | 0.04 | 87 | 1014.3 |
| 20260508030516 | 45 | 50 | 1.0 | 3.0 | 0.00 | 0.04 | 0.04 | 86 | 1014.1 |
| 20260508025517 | 45 | 9 | 1.0 | 3.0 | 0.00 | 0.04 | 0.04 | 86 | 1014.0 |
| 20260508024636 | 46 | 357 | 1.0 | 3.0 | 0.00 | 0.04 | 0.04 | 84 | 1014.0 |
| 20260508023516 | 47 | 250 | 1.0 | 3.0 | 0.00 | 0.04 | 0.04 | 82 | 1013.8 |
| 20260508022517 | 47 | 305 | 1.0 | 3.0 | 0.00 | 0.04 | 0.04 | 80 | 1013.7 |
| 20260508021537 | 48 | 143 | 1.0 | 6.0 | 0.00 | 0.05 | 0.04 | 79 | 1013.5 |
| 20260508020517 | 48 | 355 | 1.0 | 2.0 | 0.00 | 0.05 | 0.04 | 77 | 1013.4 |
| 20260508015518 | 48 | 289 | 1.0 | 6.0 | 0.00 | 0.06 | 0.04 | 77 | 1013.2 |
| 20260508014517 | 48 | 346 | 0.0 | 2.0 | 0.00 | 0.08 | 0.04 | 78 | 1013.1 |
| 20260508013518 | 47 | 354 | 1.0 | 3.0 | 0.00 | 0.10 | 0.04 | 80 | 1013.0 |
| 20260508012518 | 48 | 78 | 0.0 | 2.0 | 0.00 | 0.12 | 0.04 | 82 | 1012.9 |
| 20260508011518 | 48 | 337 | 0.0 | 2.0 | 0.00 | 0.14 | 0.04 | 82 | 1012.8 |
| 20260508010518 | 49 | 135 | 0.0 | 1.0 | 0.00 | 0.16 | 0.04 | 80 | 1012.6 |
| 20260508005519 | 50 | 132 | 0.0 | 2.0 | 0.00 | 0.18 | 0.04 | 79 | 1012.5 |
| 20260508004518 | 51 | 19 | 0.0 | 2.0 | 0.00 | 0.19 | 0.04 | 76 | 1012.4 |
| 20260508003516 | 52 | 5 | 0.0 | 2.0 | 0.00 | 0.20 | 0.04 | 73 | 1012.3 |
| 20260508002516 | 53 | 214 | 0.0 | 2.0 | 0.00 | 0.20 | 0.04 | 70 | 1012.3 |
| 20260508001516 | 54 | 319 | 0.0 | 2.0 | 0.00 | 0.20 | 0.04 | 66 | 1012.2 |
| 20260508000517 | 55 | 151 | 1.0 | 2.0 | 0.00 | 0.20 | 0.04 | 63 | 1012.0 |
| 20260507235536 | 55 | 21 | 2.0 | 4.0 | 0.00 | 0.20 | 0.04 | 60 | 1011.9 |
| 20260507234517 | 56 | 10 | 2.0 | 8.0 | 0.00 | 0.20 | 0.04 | 60 | 1011.8 |
| 20260507233517 | 56 | 16 | 1.0 | 4.0 | 0.00 | 0.20 | 0.04 | 60 | 1011.8 |
| 20260507232517 | 57 | 5 | 1.0 | 4.0 | 0.00 | 0.20 | 0.04 | 57 | 1011.7 |
| 20260507231517 | 58 | 341 | 2.0 | 8.0 | 0.00 | 0.20 | 0.04 | 56 | 1011.6 |
| 20260507230517 | 58 | 353 | 3.0 | 9.0 | 0.00 | 0.20 | 0.04 | 54 | 1011.5 |
| 20260507225518 | 58 | 335 | 2.0 | 5.0 | 0.00 | 0.20 | 0.04 | 56 | 1011.3 |
| 20260507224538 | 58 | 324 | 3.0 | 8.0 | 0.00 | 0.20 | 0.04 | 55 | 1011.3 |
| 20260507223518 | 58 | 348 | 2.0 | 8.0 | 0.00 | 0.20 | 0.04 | 58 | 1011.3 |
| 20260507222538 | 59 | 25 | 2.0 | 9.0 | 0.00 | 0.20 | 0.04 | 57 | 1011.3 |
| 20260507221519 | 60 | 0 | 1.0 | 4.0 | 0.00 | 0.20 | 0.04 | 56 | 1011.2 |
| 20260507220516 | 60 | 355 | 2.0 | 4.0 | 0.00 | 0.20 | 0.04 | 56 | 1011.2 |
| 20260507215516 | 60 | 350 | 2.0 | 5.0 | 0.00 | 0.20 | 0.04 | 56 | 1011.1 |
| 20260507214516 | 60 | 298 | 2.0 | 6.0 | 0.00 | 0.20 | 0.04 | 56 | 1011.0 |
| 20260507213516 | 60 | 292 | 2.0 | 6.0 | 0.00 | 0.20 | 0.04 | 57 | 1010.9 |
| 20260507212516 | 60 | 242 | 2.0 | 6.0 | 0.00 | 0.20 | 0.04 | 56 | 1010.8 |
| 20260507211516 | 61 | 33 | 2.0 | 9.0 | 0.00 | 0.20 | 0.04 | 57 | 1010.7 |
| 20260507210516 | 61 | 8 | 2.0 | 7.0 | 0.00 | 0.20 | 0.04 | 59 | 1010.6 |
| 20260507205537 | 60 | 287 | 2.0 | 6.0 | 0.00 | 0.20 | 0.04 | 59 | 1010.7 |
| 20260507204517 | 60 | 299 | 1.0 | 6.0 | 0.00 | 0.20 | 0.04 | 59 | 1010.7 |
| 20260507203517 | 61 | 329 | 3.0 | 7.0 | 0.00 | 0.20 | 0.04 | 58 | 1010.6 |
| 20260507202517 | 62 | 357 | 2.0 | 4.0 | 0.00 | 0.20 | 0.04 | 59 | 1010.6 |
| 20260507201518 | 61 | 12 | 2.0 | 6.0 | 0.00 | 0.20 | 0.04 | 59 | 1010.4 |
| 20260507200518 | 61 | 265 | 2.0 | 5.0 | 0.00 | 0.20 | 0.04 | 60 | 1010.4 |
| 20260507195518 | 60 | 353 | 3.0 | 7.0 | 0.00 | 0.20 | 0.04 | 61 | 1010.5 |
| 20260507194518 | 59 | 5 | 2.0 | 7.0 | 0.00 | 0.20 | 0.04 | 64 | 1010.8 |
| 20260507193518 | 60 | 19 | 1.0 | 4.0 | 0.00 | 0.20 | 0.04 | 65 | 1010.9 |
| 20260507192519 | 61 | 344 | 2.0 | 5.0 | 0.00 | 0.20 | 0.04 | 64 | 1011.2 |
| 20260507191515 | 59 | 331 | 1.0 | 4.0 | 0.00 | 0.20 | 0.04 | 69 | 1011.4 |
| 20260507190518 | 58 | 40 | 2.0 | 4.0 | 0.00 | 0.20 | 0.04 | 69 | 1011.5 |
| 20260507185516 | 58 | 136 | 2.0 | 5.0 | 0.00 | 0.20 | 0.04 | 72 | 1011.6 |
| 20260507184520 | 56 | 339 | 1.0 | 3.0 | 0.00 | 0.20 | 0.04 | 75 | 1011.6 |
| 20260507183559 | 55 | 17 | 1.0 | 2.0 | 0.03 | 0.20 | 0.04 | 81 | 1011.7 |
| 20260507182519 | 55 | 32 | 1.0 | 3.0 | 0.03 | 0.20 | 0.04 | 80 | 1011.8 |
| 20260507181520 | 54 | 40 | 1.0 | 2.0 | 0.03 | 0.20 | 0.04 | 85 | 1011.7 |
| 20260507180540 | 54 | 3 | 1.0 | 2.0 | 0.03 | 0.20 | 0.04 | 85 | 1011.7 |
| 20260507175520 | 54 | 66 | 1.0 | 2.0 | 0.03 | 0.20 | 0.04 | 88 | 1011.7 |
| 20260507174520 | 54 | 45 | 1.0 | 2.0 | 0.03 | 0.20 | 0.04 | 83 | 1011.7 |
| 20260507173520 | 54 | 2 | 1.0 | 2.0 | 0.01 | 0.17 | 0.01 | 85 | 1011.8 |
| 20260507172520 | 53 | 7 | 1.0 | 3.0 | 0.01 | 0.17 | 0.01 | 82 | 1011.9 |
| 20260507171521 | 53 | 28 | 1.0 | 2.0 | 0.00 | 0.17 | 0.00 | 84 | 1011.9 |
| 20260507170520 | 52 | 347 | 1.0 | 3.0 | 0.00 | 0.17 | 0.00 | 85 | 1012.1 |
| 20260507165521 | 53 | 11 | 1.0 | 3.0 | 0.00 | 0.17 | 0.00 | 85 | 1012.0 |
| 20260507164521 | 52 | 7 | 1.0 | 3.0 | 0.00 | 0.17 | 0.00 | 85 | 1012.1 |
| 20260507163521 | 52 | 14 | 1.0 | 2.0 | 0.00 | 0.17 | 0.00 | 86 | 1012.1 |
| 20260507162542 | 52 | 347 | 1.0 | 2.0 | 0.00 | 0.19 | 0.00 | 85 | 1012.3 |
| 20260507161522 | 52 | 38 | 0.0 | 1.0 | 0.00 | 0.23 | 0.00 | 86 | 1012.3 |
| 20260507160522 | 53 | 41 | 1.0 | 3.0 | 0.00 | 0.24 | 0.00 | 82 | 1012.3 |
| 20260507155522 | 53 | 2 | 1.0 | 3.0 | 0.00 | 0.24 | 0.00 | 82 | 1012.2 |
| 20260507154522 | 53 | 19 | 1.0 | 3.0 | 0.00 | 0.24 | 0.00 | 83 | 1012.4 |
| 20260507153522 | 53 | 231 | 1.0 | 3.0 | 0.00 | 0.24 | 0.00 | 83 | 1012.5 |
| 20260507152522 | 53 | 327 | 0.0 | 1.0 | 0.00 | 0.24 | 0.00 | 85 | 1012.3 |
| 20260507151523 | 53 | 137 | 1.0 | 3.0 | 0.00 | 0.24 | 0.00 | 86 | 1012.4 |
| 20260507150522 | 53 | 141 | 1.0 | 3.0 | 0.00 | 0.24 | 0.00 | 86 | 1012.4 |
| 20260507145523 | 53 | 23 | 0.0 | 0.0 | 0.00 | 0.24 | 0.00 | 86 | 1012.5 |
| 20260507144523 | 53 | 17 | 0.0 | 1.0 | 0.00 | 0.25 | 0.00 | 87 | 1012.5 |
| 20260507143523 | 53 | 305 | 0.0 | 1.0 | 0.00 | 0.25 | 0.00 | 84 | 1012.2 |
| 20260507142523 | 53 | 67 | 1.0 | 3.0 | 0.00 | 0.25 | 0.00 | 84 | 1012.2 |
| 20260507141524 | 53 | 344 | 1.0 | 2.0 | 0.00 | 0.25 | 0.00 | 85 | 1012.3 |
| 20260507140523 | 53 | 77 | 1.0 | 3.0 | 0.00 | 0.25 | 0.00 | 83 | 1012.4 |
| 20260507135521 | 53 | 24 | 1.0 | 5.0 | 0.00 | 0.25 | 0.00 | 86 | 1012.3 |
| 20260507134524 | 53 | 24 | 1.0 | 2.0 | 0.00 | 0.25 | 0.00 | 87 | 1012.2 |
| 20260507133524 | 52 | 7 | 1.0 | 2.0 | 0.00 | 0.26 | 0.00 | 87 | 1012.5 |
| 20260507132544 | 52 | 24 | 1.0 | 2.0 | 0.00 | 0.27 | 0.00 | 89 | 1012.5 |
| 20260507131524 | 52 | 21 | 1.0 | 2.0 | 0.00 | 0.31 | 0.00 | 89 | 1012.6 |
| 20260507130525 | 52 | 31 | 1.0 | 3.0 | 0.00 | 0.31 | 0.00 | 89 | 1012.8 |
| 20260507125525 | 52 | 10 | 1.0 | 2.0 | 0.00 | 0.31 | 0.00 | 90 | 1012.8 |
| 20260507124525 | 52 | 107 | 1.0 | 2.0 | 0.00 | 0.32 | 0.00 | 90 | 1012.7 |
| 20260507123525 | 52 | 6 | 1.0 | 2.0 | 0.00 | 0.32 | 0.00 | 90 | 1012.8 |
| 20260507122525 | 52 | 21 | 1.0 | 3.0 | 0.00 | 0.32 | 0.00 | 89 | 1012.6 |
| 20260507121526 | 53 | 18 | 1.0 | 2.0 | 0.00 | 0.32 | 0.00 | 89 | 1012.5 |
| 20260507120526 | 53 | 117 | 0.0 | 1.0 | 0.00 | 0.32 | 0.00 | 89 | 1012.6 |
| 20260507115526 | 52 | 60 | 0.0 | 2.0 | 0.00 | 0.32 | 0.00 | 90 | 1012.3 |
| 20260507114526 | 52 | 20 | 1.0 | 4.0 | 0.00 | 0.32 | 0.00 | 91 | 1012.4 |
| 20260507113547 | 52 | 35 | 1.0 | 3.0 | 0.00 | 0.32 | 0.00 | 92 | 1012.3 |
| 20260507112526 | 52 | 141 | 0.0 | 2.0 | 0.00 | 0.32 | 0.00 | 92 | 1012.4 |
| 20260507111527 | 52 | 15 | 1.0 | 2.0 | 0.00 | 0.32 | 0.00 | 93 | 1012.3 |
| 20260507110547 | 52 | 56 | 0.0 | 2.0 | 0.00 | 0.32 | 0.00 | 94 | 1011.9 |
| 20260507105527 | 52 | 0.0 | 0.0 | 0.00 | 0.32 | 0.00 | 94 | 1011.8 | |
| 20260507104548 | 52 | 26 | 1.0 | 2.0 | 0.00 | 0.32 | 0.00 | 92 | 1011.8 |
| 20260507103528 | 52 | 105 | 1.0 | 2.0 | 0.00 | 0.32 | 0.00 | 92 | 1011.7 |
| 20260507102527 | 52 | 76 | 1.0 | 3.0 | 0.00 | 0.34 | 0.00 | 93 | 1011.6 |
| 20260507101528 | 53 | 119 | 0.0 | 2.0 | 0.00 | 0.34 | 0.00 | 93 | 1011.5 |
| 20260507100529 | 53 | 11 | 1.0 | 2.0 | 0.00 | 0.34 | 0.00 | 93 | 1011.4 |
| 20260507095528 | 53 | 19 | 1.0 | 2.0 | 0.00 | 0.34 | 0.00 | 93 | 1011.6 |
| 20260507094528 | 53 | 107 | 1.0 | 2.0 | 0.00 | 0.34 | 0.00 | 93 | 1011.8 |
| 20260507093608 | 54 | 2 | 1.0 | 2.0 | 0.00 | 0.34 | 0.00 | 93 | 1011.9 |